Location: Newark
(41.1500°S, 172.6000°E)
Time: 00:04:59
(UTC+00:00)

LightSail 2 - Visible Passes

Search period start: 19 October 2019 00:00
Search period end: 29 October 2019 00:00
Orbit: 707 x 722 km, 24.0° (Epoch: 18 October)

Date Brightness Start Highest point End Pass type
(mag) Time Alt. Az. Time Alt. Az. Time Alt. Az.
20 Oct 7.3 16:41:46 10° NNW 16:43:16 11° N 16:44:46 10° NNE visible
21 Oct 7.4 15:46:05 11° N 15:46:05 11° N 15:47:07 10° NNE visible
22 Oct 7.3 16:31:47 10° NNW 16:33:11 11° N 16:34:34 10° NNE visible
23 Oct 7.4 15:36:53 11° NNE 15:36:53 11° NNE 15:37:25 10° NNE visible
